User: anonymous   Login
Location: Unspecified
(0.0000°N, 0.0000°E)
Time: 01:58:31
(UTC+00:00)
Language:

ECS 2 - Orbit

View from above orbital plane
View from above orbital plane
View from above satellite
View from above satellite

Ground track
Ground track

The orbit data is extracted from the following two-line orbital elements,

1 15158U 84081A   18022.66993233 -.00000108  00000-0  00000+0 0  9994
2 15158  15.4034 358.3666 0004497 179.8697  20.6176  0.98797801 86990
Epoch (UTC): 22 January 2018 16:04:42
Eccentricity: 0.0004497
inclination: 15.4034°
perigee height: 36185 km
apogee height: 36224 km
right ascension of ascending node: 358.3666°
argument of perigee: 179.8697°
revolutions per day: 0.98797801
mean anomaly at epoch: 20.6176°
orbit number at epoch: 8699

The dashed part of the orbit path shows where the satellite is in the earth's shadow,  

DLR